Flag for Faroe Islands Weather past 2 weeks in Tórshavn, Faroe Islands, Faroe Islands

Now
46 °F

Drizzle. Fog.


Feels Like: 41 °F
Forecast: 45 / 47 °F
Wind: 10 mph from Southwest

Location: Soervaag / Vagar


UV Index: 0 (Low)

Visibility: 1 mi


Pressure: 29.80 "Hg

Humidity: 100%

Dew point: 46 °F

Location of TórshavnLocation

Historic Weather in Tórshavn

°F

Tórshavn temperature yesterday

Maximum temperature yesterday: 41 °F (at 12:20 AM)
Minimum temperature yesterday: 36 °F (at 11:20 AM)
Average temperature yesterday: 38 °F

Past Weeks' High & Low Weather Summary

 TemperatureHumidityPressure
High50 °F (Apr 5, 2:50 PM)100% (Apr 3, 10:50 PM)30.21 "Hg (Apr 3, 10:50 PM)
Low36 °F (Apr 13, 11:50 PM)56% (Apr 17, 3:20 PM)28.91 "Hg (Apr 12, 11:50 AM)
Average43 °F85%29.62 "Hg
* Reported Apr 3 7:20 PM — Apr 18 7:20 PM, Tórshavn, Weather by CustomWeather, © 2014

Note: Actual official high and low records may vary slightly from our data, if they occured in-between our weather recording intervals... More about our weather records

Advertising

Historic Weather Conditions — Data for Previous 24 hours

 ConditionsComfort  
Time TempWeatherWind HumidityBarometerVisibility
7:20 PM
Apr 18
46 °FFog.9 mph100%29.80 "Hg0 mi
6:50 PM46 °FFog.9 mph100%29.80 "Hg1 mi
6:20 PM46 °FFog.9 mph100%29.80 "Hg0 mi
5:50 PM46 °FDrizzle. Fog.9 mph100%29.80 "Hg1 mi
5:20 PM46 °FDrizzle. Fog.9 mph100%29.83 "Hg1 mi
4:50 PM46 °FLight rain. Fog.8 mph100%29.80 "Hg2 mi
4:20 PM46 °FLight rain. Fog.13 mph100%29.83 "Hg2 mi
3:50 PM46 °FSprinkles. Low clouds.9 mph100%29.80 "Hg3 mi
3:20 PM46 °FSprinkles. Fog.10 mph100%29.80 "Hg2 mi
2:20 PM46 °FFog.13 mph100%29.80 "Hg1 mi
1:50 PM46 °FFog.13 mph100%29.80 "Hg1 mi
1:20 PM46 °FDrizzle. Fog.13 mph100%29.80 "Hg1 mi
12:50 PM46 °FDrizzle. Fog.12 mph100%29.80 "Hg1 mi
12:20 PM46 °FDrizzle. Fog.13 mph100%29.80 "Hg1 mi
11:50 AM46 °FDrizzle. Fog.12 mph100%29.80 "Hg1 mi
11:20 AM46 °FDrizzle. Fog.15 mph100%29.80 "Hg1 mi
10:50 AM46 °FFog.14 mph100%29.80 "Hg2 mi
10:20 AM46 °FLow clouds.14 mph100%29.80 "Hg3 mi
9:50 AM46 °FFog.14 mph93%29.80 "Hg2 mi
9:20 AM46 °FLow clouds.17 mph93%29.80 "Hg3 mi
8:50 AM45 °FFog.17 mph100%29.80 "Hg2 mi
8:20 AM45 °FFog.16 mph100%29.83 "Hg2 mi
7:50 AM45 °FFog.18 mph100%29.83 "Hg2 mi
7:20 AM45 °FSprinkles. Fog.21 mph93%29.83 "Hg2 mi
6:50 AM43 °FSprinkles. Fog.22 mph100%29.83 "Hg2 mi
6:20 AM43 °FLow clouds.18 mph93%29.86 "Hg3 mi
5:50 AM43 °FPassing clouds.23 mph87%29.86 "HgN/A
5:20 AM45 °FPassing clouds.23 mph81%29.86 "HgN/A
4:50 AM43 °FPassing clouds.21 mph87%29.89 "HgN/A
4:20 AM43 °FSprinkles. Passing clouds.24 mph81%29.89 "Hg5 mi
3:50 AM43 °FOvercast.18 mph76%29.92 "HgN/A
3:20 AM41 °FOvercast.20 mph76%29.92 "HgN/A
2:50 AM41 °FPassing clouds.17 mph70%29.95 "HgN/A
2:20 AM41 °FPartly cloudy.17 mph70%29.95 "HgN/A
1:50 AM41 °FPassing clouds.16 mph70%29.98 "HgN/A
1:20 AM39 °FPartly cloudy.14 mph70%29.98 "HgN/A
12:20 AM37 °FPassing clouds.12 mph70%30.01 "HgN/A
11:50 PM
Apr 17
37 °FPassing clouds.8 mph70%30.01 "HgN/A
11:20 PM37 °FPartly cloudy.8 mph70%30.01 "HgN/A
10:50 PM36 °FPartly sunny.7 mph75%30.04 "HgN/A
10:20 PM37 °FBroken clouds.5 mph70%30.04 "HgN/A
9:50 PM36 °FPartly sunny.1 mph75%30.04 "HgN/A
9:20 PM37 °FPartly sunny.1 mph65%30.04 "HgN/A
8:50 PM37 °FPartly sunny.3 mph70%30.04 "HgN/A
8:20 PM37 °FBroken clouds.5 mph65%30.04 "HgN/A
Weather by CustomWeather, © 2014

See weather overview